Location: Miles
(41.4492°N, 81.6087°W)
Time: 22:07:49
(UTC+00:00)

Vanguard 2 Rocket - Pass Details

Date: 21 September 2024
Orbit: 553 x 3298 km, 32.9° (Epoch: 12 October)

Event Time Altitude Azimuth Distance (km) Brightness Sun altitude
Rises 09:16:09 0° 271° (W) 4,819 - -22.3°
Reaches altitude 10° 09:18:57 10° 265° (W) 4,142 - -21.8°
Exits shadow 09:23:19 29° 251° (WSW) 3,328 9.1 -21.0°
Maximum altitude 09:30:21 50° 195° (SSW) 3,048 9.2 -19.8°
Drops below altitude 10° 09:47:52 10° 128° (SE) 6,153 11.6 -16.6°
Sets 09:53:10 0° 124° (SE) 7,265 12.1 -15.7°
